Weather History for New Iberia, LA

Change the Weather History Date:

Tuesday, December 3, 2013

  Actual Average Record
Temperature  
Mean Temperature 70 °F 56 °F  
Max Temperature 81 °F 67 °F 87 °F (1982)
Min Temperature 59 °F 46 °F 29 °F (1974)
Degree Days  
Heating Degree Days 0 10  
Month to date heating degree days 10 28  
Since 1 July heating degree days 243 223  
Cooling Degree Days 5 1  
Month to date cooling degree days 6 3  
Year to date cooling degree days 3197 2795  
Growing Degree Days 19 (Base 50)    
Moisture  
Dew Point 64 °F    
Average Humidity 84    
Maximum Humidity 100    
Minimum Humidity 67    
Precipitation  
Precipitation 0.00 in 0.19 in 2.58 in (1990)
Month to date precipitation 0.00 0.58  
Year to date precipitation 63.08 55.27  
Sea Level Pressure  
Sea Level Pressure 29.76 in    
Wind  
Wind Speed 10 mph (SSW)    
Max Wind Speed 23 mph    
Max Gust Speed 29 mph    
Visibility 4 miles    
Events Fog    
T = Trace of Precipitation, MM = Missing Value Source: NWS Daily Summary

Daily Weather History Graph

Daily Weather History Graph

Search for Another Location

Airport:

Trip Planner

Search our weather history database for the weather conditions in past years. The results will help you decide how hot, cold, wet, or windy it might be!

Date:

Astronomy

Dec. 03, 2013 Rise Set
Actual Time 6:47 AM CST 5:07 PM CST
Civil Twilight 6:21 AM CST 5:33 PM CST
Nautical Twilight 5:51 AM CST 6:02 PM CST
Astronomical Twilight 5:22 AM CST 6:31 PM CST
Moon 7:18 AM CST (12/3) 6:09 PM CST (12/3)
Length of Visible Light 11h 11m
Length of Day
10h 19m
New Moon, 1% of the Moon is Illuminated
Dec 3
New Moon
Dec 9
First Quarter
Dec 17
Full
Dec 25
Last Quarter
Jan 1
New

Hourly Weather History & Observations

Time (CST) Temp. Dew Point Humidity Pressure Visibility Wind Dir Wind Speed Gust Speed Precip Events Conditions
12:12 AM 60.8 °F 59.0 °F 94% 29.78 in 0.5 mi Calm Calm - N/A Fog Fog
12:20 AM 60.8 °F 59.0 °F 94% 29.78 in 0.2 mi Calm Calm - N/A Fog Fog
12:30 AM 60.8 °F 59.0 °F 94% 29.78 in 0.5 mi South 3.5 mph - N/A Fog Fog
12:36 AM 59.0 °F 57.2 °F 94% 29.78 in 0.2 mi South 3.5 mph - N/A Fog Fog
12:53 AM 60.1 °F 57.9 °F 93% 29.78 in 0.2 mi Calm Calm - N/A Fog Fog
1:08 AM 60.8 °F 59.0 °F 94% 29.78 in 0.2 mi Calm Calm - N/A Fog Fog
1:29 AM 59.0 °F 57.2 °F 94% 29.78 in 0.2 mi Calm Calm - N/A Fog Fog
1:43 AM 60.8 °F 59.0 °F 94% 29.78 in 0.8 mi Calm Calm - N/A   Mist
1:53 AM 62.1 °F 60.1 °F 93% 29.77 in 0.8 mi SSW 3.5 mph - N/A   Mist
2:13 AM 62.6 °F 62.6 °F 100% 29.77 in 0.2 mi South 4.6 mph - N/A Fog Fog
2:53 AM 63.0 °F 62.1 °F 97% 29.77 in 0.2 mi South 4.6 mph - N/A Fog Fog
3:25 AM 62.6 °F 60.8 °F 94% 29.76 in 0.5 mi SSE 3.5 mph - N/A Fog Fog
3:33 AM 62.6 °F 60.8 °F 94% 29.76 in 0.2 mi South 4.6 mph - N/A Fog Fog
3:53 AM 61.0 °F 60.1 °F 97% 29.75 in 0.2 mi SSE 3.5 mph - N/A Fog Fog
4:21 AM 62.6 °F 60.8 °F 94% 29.74 in 0.5 mi SSW 5.8 mph - N/A Fog Fog
4:30 AM 62.6 °F 62.6 °F 100% 29.74 in 0.8 mi SSW 9.2 mph - N/A   Mist
4:33 AM 64.4 °F 62.6 °F 94% 29.74 in 2.0 mi SSW 9.2 mph - N/A   Mostly Cloudy
4:41 AM 64.4 °F 62.6 °F 94% 29.74 in 7.0 mi SSW 8.1 mph - N/A   Scattered Clouds
4:53 AM 64.0 °F 63.0 °F 96% 29.74 in 7.0 mi SSW 8.1 mph - N/A   Partly Cloudy
5:53 AM 64.0 °F 63.0 °F 96% 29.74 in 10.0 mi SW 4.6 mph - N/A   Clear
6:28 AM 64.4 °F 62.6 °F 94% 29.75 in 7.0 mi SW 3.5 mph - N/A   Mostly Cloudy
6:39 AM 62.6 °F 62.6 °F 100% 29.75 in 1.5 mi Calm Calm - N/A   Overcast
6:53 AM 64.0 °F 62.1 °F 93% 29.76 in 1.0 mi SW 6.9 mph - N/A   Overcast
7:00 AM 64.4 °F 62.6 °F 94% 29.76 in 0.5 mi SSW 6.9 mph - N/A Fog Fog
7:03 AM 64.4 °F 62.6 °F 94% 29.76 in 0.2 mi SSW 5.8 mph - N/A Fog Fog
7:31 AM 62.6 °F 62.6 °F 100% 29.77 in 0.2 mi South 6.9 mph - N/A Fog Fog
7:50 AM 64.4 °F 62.6 °F 94% 29.78 in 0.2 mi South 4.6 mph - N/A Fog Fog
7:53 AM 64.0 °F 63.0 °F 96% 29.78 in 0.2 mi South 5.8 mph - N/A Fog Fog
8:13 AM 64.4 °F 64.4 °F 100% 29.78 in 0.2 mi South 5.8 mph - N/A Fog Fog
8:29 AM 66.2 °F 64.4 °F 94% 29.78 in 0.2 mi South 5.8 mph - N/A Fog Fog
8:53 AM 66.9 °F 66.0 °F 97% 29.79 in 0.8 mi SSW 6.9 mph - N/A   Mist
8:58 AM 68.0 °F 66.2 °F 94% 29.79 in 2.5 mi SSW 9.2 mph - N/A   Mostly Cloudy
9:05 AM 68.0 °F 66.2 °F 94% 29.79 in 9.0 mi SSW 6.9 mph - N/A   Mostly Cloudy
9:13 AM 68.0 °F 66.2 °F 94% 29.79 in 10.0 mi SSW 8.1 mph - N/A   Scattered Clouds
9:53 AM 73.0 °F 66.9 °F 81% 29.80 in 10.0 mi SW 9.2 mph 19.6 mph N/A   Partly Cloudy
10:28 AM 73.4 °F 66.2 °F 78% 29.80 in 10.0 mi SW 17.3 mph 23.0 mph N/A   Mostly Cloudy
10:53 AM 77.0 °F 68.0 °F 74% 29.80 in 10.0 mi SW 16.1 mph 23.0 mph N/A   Scattered Clouds
11:53 AM 77.0 °F 66.0 °F 69% 29.76 in 10.0 mi SW 17.3 mph 23.0 mph N/A   Mostly Cloudy
12:53 PM 79.0 °F 66.0 °F 64% 29.73 in 10.0 mi SW 16.1 mph 27.6 mph N/A   Overcast
1:10 PM 78.8 °F 64.4 °F 61% 29.73 in 10.0 mi SSW 19.6 mph 28.8 mph N/A   Overcast
1:21 PM 77.0 °F 66.2 °F 69% 29.73 in 10.0 mi SSW 17.3 mph 21.9 mph N/A   Overcast
1:31 PM 77.0 °F 66.2 °F 69% 29.73 in 10.0 mi SW 18.4 mph 25.3 mph N/A   Overcast
1:53 PM 79.0 °F 66.0 °F 64% 29.73 in 10.0 mi SW 19.6 mph 26.5 mph N/A   Overcast
2:53 PM 75.9 °F 66.9 °F 74% 29.73 in 10.0 mi SSW 12.7 mph - N/A   Mostly Cloudy
3:53 PM 75.0 °F 68.0 °F 79% 29.73 in 10.0 mi South 12.7 mph - N/A   Partly Cloudy
4:53 PM 72.0 °F 66.9 °F 84% 29.73 in 10.0 mi South 10.4 mph - N/A   Partly Cloudy
5:27 PM 71.6 °F 66.2 °F 83% 29.74 in 9.0 mi South 9.2 mph - N/A   Mostly Cloudy
5:43 PM 69.8 °F 66.2 °F 88% 29.74 in 9.0 mi South 8.1 mph - N/A   Mostly Cloudy
5:53 PM 70.0 °F 66.9 °F 90% 29.75 in 8.0 mi South 8.1 mph - N/A   Overcast
6:28 PM 69.8 °F 68.0 °F 94% 29.75 in 6.0 mi South 9.2 mph - N/A   Overcast
6:53 PM 69.1 °F 66.9 °F 93% 29.76 in 6.0 mi South 10.4 mph - N/A   Overcast
7:21 PM 69.8 °F 66.2 °F 88% 29.77 in 4.0 mi South 10.4 mph - N/A   Overcast
7:53 PM 70.0 °F 68.0 °F 93% 29.77 in 4.0 mi South 13.8 mph - N/A   Overcast
8:53 PM 70.0 °F 68.0 °F 93% 29.78 in 5.0 mi South 13.8 mph - N/A   Overcast
9:53 PM 70.0 °F 68.0 °F 93% 29.80 in 5.0 mi South 12.7 mph - N/A   Overcast
10:53 PM 70.0 °F 68.0 °F 93% 29.80 in 4.0 mi South 11.5 mph - N/A   Overcast
11:40 PM 69.8 °F 68.0 °F 94% 29.80 in 2.0 mi South 11.5 mph - N/A   Overcast
11:53 PM 70.0 °F 68.0 °F 93% 29.81 in 2.0 mi South 10.4 mph - N/A   Overcast